Location: Newark
(54.6833°N, 25.2833°E)
Time: 11:50:10
(UTC+00:00)

SR - All Passes

Search period start: 21 January 2021 00:00
Search period end: 31 January 2021 00:00
Orbit: 575 x 880 km, 66.7° (Epoch: 21 January)

Date Brightness Start Highest point End Pass type
(mag) Time Alt. Az. Time Alt. Az. Time Alt. Az.
21 Jan - 02:55:17 10° SSE 02:58:54 21° ESE 03:02:44 10° ENE visible
21 Jan - 04:35:21 10° SW 04:40:16 87° NW 04:45:43 10° NE visible
21 Jan - 06:18:29 10° W 06:23:04 32° NNW 06:28:02 10° NE daylight
21 Jan - 08:02:25 10° NW 08:06:43 24° N 08:11:16 10° NE daylight
21 Jan - 09:45:17 10° NW 09:50:20 34° NNE 09:55:38 10° E daylight
21 Jan - 11:27:24 10° NW 11:33:07 88° NE 11:39:03 10° SE daylight
21 Jan - 13:10:07 10° WNW 13:14:43 25° WSW 13:19:24 10° SSW daylight
22 Jan - 02:08:02 10° ESE 02:09:42 12° ESE 02:11:24 10° E visible
22 Jan - 03:45:47 10° SSW 03:50:34 58° SE 03:55:50 10° NE visible
22 Jan - 05:28:06 10° WSW 05:32:54 42° NNW 05:38:09 10° NE visible
22 Jan - 07:12:04 10° WNW 07:16:22 24° N 07:20:56 10° NE daylight
22 Jan - 08:55:22 10° NW 09:00:06 28° NNE 09:05:04 10° ENE daylight
22 Jan - 10:37:37 10° NW 10:43:13 61° NE 10:49:05 10° ESE daylight
22 Jan - 12:19:56 10° NW 12:25:15 40° WSW 12:30:43 10° S daylight
23 Jan - 02:56:40 10° S 03:01:03 34° ESE 03:05:48 10° NE visible
23 Jan - 04:37:57 10° WSW 04:42:53 60° NW 04:48:19 10° NE visible
23 Jan - 06:21:36 10° WNW 06:26:02 27° NNW 06:30:47 10° NE daylight
23 Jan - 08:05:19 10° NW 08:09:47 25° N 08:14:29 10° ENE daylight
23 Jan - 09:47:50 10° NW 09:53:13 44° NNE 09:58:49 10° ESE daylight
23 Jan - 11:29:58 10° NW 11:35:38 64° SW 11:41:29 10° SSE daylight
23 Jan - 13:13:29 10° WNW 13:16:50 16° WSW 13:20:13 10° SW daylight
24 Jan - 02:08:10 10° SSE 02:11:41 20° ESE 02:15:27 10° ENE visible
24 Jan - 03:48:04 10° SW 03:53:01 89° SE 03:58:29 10° NE visible
24 Jan - 05:31:08 10° W 05:35:47 33° NNW 05:40:48 10° NE visible
24 Jan - 07:15:06 10° NW 07:19:26 24° N 07:23:59 10° NE daylight
24 Jan - 08:58:01 10° NW 09:03:04 34° NNE 09:08:21 10° E daylight
24 Jan - 10:40:09 10° NW 10:45:53 85° NE 10:51:50 10° SE daylight
24 Jan - 12:22:48 10° WNW 12:27:32 26° WSW 12:32:19 10° SSW daylight
25 Jan - 01:21:11 10° ESE 01:22:31 11° E 01:23:52 10° E visible
25 Jan - 02:58:33 10° SSW 03:03:20 55° ESE 03:08:35 10° NE visible
25 Jan - 04:40:47 10° WSW 04:45:38 43° NNW 04:50:56 10° NE visible
25 Jan - 06:24:43 10° WNW 06:29:04 25° N 06:33:41 10° NE daylight
25 Jan - 08:08:05 10° NW 08:12:49 28° NNE 08:17:46 10° ENE daylight
25 Jan - 09:50:22 10° NW 09:55:59 59° NE 10:01:49 10° ESE daylight
25 Jan - 11:32:39 10° NW 11:38:03 42° WSW 11:43:34 10° S daylight
26 Jan - 02:09:28 10° S 02:13:49 33° ESE 02:18:33 10° NE visible
26 Jan - 03:50:39 10° WSW 03:55:37 62° NW 04:01:06 10° NE visible
26 Jan - 05:34:15 10° WNW 05:38:45 28° NNW 05:43:32 10° NE visible
26 Jan - 07:18:01 10° NW 07:22:29 25° N 07:27:11 10° ENE daylight
26 Jan - 09:00:35 10° NW 09:05:56 42° NNE 09:11:32 10° ESE daylight
26 Jan - 10:42:43 10° NW 10:48:25 67° SW 10:54:18 10° SSE daylight
26 Jan - 12:26:07 10° WNW 12:29:39 17° WSW 12:33:14 10° SW daylight
27 Jan - 01:21:03 10° SSE 01:24:30 19° ESE 01:28:08 10° ENE visible
27 Jan - 03:00:48 10° SW 03:05:46 86° SE 03:11:16 10° NE visible
27 Jan - 04:43:48 10° W 04:48:30 34° NNW 04:53:34 10° NE visible
27 Jan - 06:27:46 10° NW 06:32:07 24° N 06:36:43 10° NE daylight
27 Jan - 08:10:44 10° NW 08:15:47 33° NNE 08:21:04 10° E daylight
27 Jan - 09:52:53 10° NW 09:58:39 82° NE 10:04:36 10° SE daylight
27 Jan - 11:35:30 10° WNW 11:40:19 28° WSW 11:45:14 10° SSW daylight
28 Jan - 00:34:30 10° ESE 00:35:20 10° E 00:36:10 10° E visible
28 Jan - 02:11:19 10° SSW 02:16:06 53° ESE 02:21:22 10° NE visible
28 Jan - 03:53:28 10° WSW 03:58:22 45° NNW 04:03:42 10° NE visible
28 Jan - 05:37:23 10° WNW 05:41:46 25° N 05:46:25 10° NE visible
28 Jan - 07:20:48 10° NW 07:25:31 27° NNE 07:30:29 10° ENE daylight
28 Jan - 09:03:07 10° NW 09:08:43 57° NE 09:14:33 10° ESE daylight
28 Jan - 10:45:23 10° NW 10:50:50 44° WSW 10:56:25 10° S daylight
29 Jan - 01:22:17 10° S 01:26:37 31° ESE 01:31:17 10° NE visible
29 Jan - 03:03:21 10° SW 03:08:22 65° NW 03:13:52 10° NE visible
29 Jan - 04:46:54 10° WNW 04:51:27 28° NNW 04:56:18 10° NE visible
29 Jan - 06:30:43 10° NW 06:35:11 25° N 06:39:55 10° ENE daylight
29 Jan - 08:13:19 10° NW 08:18:41 41° NNE 08:24:15 10° ESE daylight
29 Jan - 09:55:28 10° NW 10:01:12 70° SW 10:07:05 10° SSE daylight
29 Jan - 11:38:44 10° WNW 11:42:28 18° WSW 11:46:14 10° SSW daylight
30 Jan - 00:33:56 10° SSE 00:37:17 18° ESE 00:40:50 10° ENE visible
30 Jan - 02:13:32 10° SW 02:18:31 82° SE 02:24:02 10° NE visible
30 Jan - 03:56:27 10° W 04:01:13 35° NNW 04:06:21 10° NE visible
30 Jan - 05:40:27 10° NW 05:44:50 24° N 05:49:26 10° NE daylight
30 Jan - 07:23:28 10° NW 07:28:30 32° NNE 07:33:46 10° E daylight
30 Jan - 09:05:38 10° NW 09:11:24 79° NE 09:17:22 10° SE daylight
30 Jan - 10:48:13 10° NW 10:53:08 29° WSW 10:58:08 10° S daylight
